Previsão horária em Almalybak

Hoje, 22 Janeiro, Sexta-feira

Tempo Temperatura Precipitação Vento Pressão Humidade
00:00 +2°C° 0 mm 2 m/s 684 mmHg 47%
01:00 +2°C° 0 mm 2 m/s 683 mmHg 47%
02:00 +2°C° 0 mm 2 m/s 683 mmHg 48%
03:00 +3°C° 0 mm 1 m/s 683 mmHg 49%
04:00 +3°C° 0 mm 1 m/s 683 mmHg 50%
05:00 +3°C° 0 mm 1 m/s 683 mmHg 51%
06:00 +3°C° 0 mm 1 m/s 684 mmHg 54%
07:00 +1°C° 0 mm 2 m/s 685 mmHg 57%
08:00 -1°C° 0 mm 2 m/s 685 mmHg 60%
09:00 +1°C° 0.1 mm 2 m/s 687 mmHg 68%
10:00 +2°C° 0.1 mm 1 m/s 688 mmHg 75%
11:00 +3°C° 0.1 mm 1 m/s 689 mmHg 83%
12:00 0°C° 0.8 mm 3 m/s 690 mmHg 83%
13:00 -2°C° 0.8 mm 4 m/s 691 mmHg 82%
14:00 -4°C° 0.8 mm 6 m/s 692 mmHg 82%
15:00 -5°C° 0.5 mm 5 m/s 694 mmHg 86%
16:00 -6°C° 0.5 mm 3 m/s 695 mmHg 89%
17:00 -6°C° 0.5 mm 2 m/s 697 mmHg 92%
18:00 -6°C° 0.4 mm 2 m/s 697 mmHg 94%
19:00 -6°C° 0.4 mm 1 m/s 698 mmHg 95%
20:00 -6°C° 0.4 mm 1 m/s 699 mmHg 96%
21:00 -6°C° 0.2 mm 1 m/s 699 mmHg 95%
22:00 -7°C° 0.2 mm 1 m/s 700 mmHg 95%
23:00 -7°C° 0.2 mm 1 m/s 700 mmHg 95%

Amanhã, 23 Janeiro, Sábado

Tempo Temperatura Precipitação Vento Pressão Humidade
00:00 -7°C° 0.2 mm 1 m/s 701 mmHg 94%
01:00 -9°C° 0.2 mm 2 m/s 701 mmHg 93%
02:00 -9°C° 0.2 mm 2 m/s 701 mmHg 92%
03:00 -10°C° 0.2 mm 2 m/s 701 mmHg 93%
04:00 -10°C° 0.2 mm 2 m/s 702 mmHg 93%
05:00 -10°C° 0.2 mm 1 m/s 702 mmHg 94%
06:00 -9°C° 0 mm 1 m/s 702 mmHg 91%
07:00 -9°C° 0 mm 1 m/s 702 mmHg 88%
08:00 -9°C° 0 mm 1 m/s 702 mmHg 86%
09:00 -8°C° 0 mm 1 m/s 702 mmHg 83%
10:00 -7°C° 0 mm 1 m/s 702 mmHg 81%
11:00 -6°C° 0 mm 1 m/s 701 mmHg 79%
12:00 -6°C° 0 mm 1 m/s 701 mmHg 80%
13:00 -7°C° 0 mm 2 m/s 701 mmHg 81%
14:00 -7°C° 0 mm 2 m/s 700 mmHg 83%
15:00 -8°C° 0 mm 2 m/s 700 mmHg 85%
16:00 -7°C° 0 mm 1 m/s 700 mmHg 87%
17:00 -8°C° 0 mm 1 m/s 700 mmHg 89%
18:00 -8°C° 0 mm 1 m/s 701 mmHg 87%
19:00 -8°C° 0 mm 1 m/s 701 mmHg 85%
20:00 -8°C° 0 mm 1 m/s 701 mmHg 83%
21:00 -8°C° 0.1 mm 1 m/s 701 mmHg 82%
22:00 -7°C° 0.1 mm 1 m/s 702 mmHg 80%
23:00 -8°C° 0.1 mm 2 m/s 702 mmHg 79%

Depois de amanhã, 24 Janeiro, Domingo

Tempo Temperatura Precipitação Vento Pressão Humidade
00:00 -6°C° 0.1 mm 1 m/s 702 mmHg 79%
01:00 -6°C° 0.1 mm 1 m/s 702 mmHg 78%
02:00 -6°C° 0.1 mm 0 m/s 703 mmHg 77%
03:00 -6°C° 0 mm 1 m/s 703 mmHg 77%
04:00 -7°C° 0 mm 2 m/s 704 mmHg 76%
05:00 -8°C° 0 mm 2 m/s 704 mmHg 76%
06:00 -8°C° 0 mm 2 m/s 704 mmHg 75%
07:00 -8°C° 0 mm 2 m/s 705 mmHg 74%
08:00 -8°C° 0 mm 2 m/s 705 mmHg 73%
09:00 -6°C° 0 mm 2 m/s 705 mmHg 74%
10:00 -5°C° 0 mm 2 m/s 705 mmHg 75%
11:00 -2°C° 0 mm 1 m/s 705 mmHg 77%
12:00 -2°C° 0 mm 1 m/s 704 mmHg 78%
13:00 -2°C° 0 mm 1 m/s 704 mmHg 79%
14:00 -1°C° 0 mm 1 m/s 703 mmHg 79%
15:00 -3°C° 0 mm 1 m/s 703 mmHg 79%
16:00 -6°C° 0 mm 2 m/s 703 mmHg 78%
17:00 -7°C° 0 mm 2 m/s 703 mmHg 78%
18:00 -8°C° 0 mm 2 m/s 703 mmHg 75%
19:00 -8°C° 0 mm 2 m/s 703 mmHg 72%
20:00 -8°C° 0 mm 2 m/s 703 mmHg 70%
21:00 -8°C° 0 mm 2 m/s 703 mmHg 71%
22:00 -7°C° 0 mm 1 m/s 703 mmHg 73%
23:00 -7°C° 0 mm 1 m/s 703 mmHg 75%

25 Janeiro, Segunda-feira

Tempo Temperatura Precipitação Vento Pressão Humidade
00:00 -7°C° 0 mm 1 m/s 703 mmHg 77%
01:00 -6°C° 0 mm 1 m/s 702 mmHg 79%
02:00 -6°C° 0 mm 1 m/s 702 mmHg 80%
03:00 -6°C° 0 mm 1 m/s 702 mmHg 82%
04:00 -6°C° 0 mm 1 m/s 702 mmHg 83%
05:00 -7°C° 0 mm 1 m/s 701 mmHg 84%
06:00 -6°C° 0 mm 1 m/s 701 mmHg 84%
07:00 -6°C° 0 mm 1 m/s 701 mmHg 84%
08:00 -6°C° 0 mm 1 m/s 701 mmHg 84%
09:00 -4°C° 0 mm 1 m/s 701 mmHg 84%
10:00 -4°C° 0 mm 1 m/s 701 mmHg 83%
11:00 -3°C° 0 mm 1 m/s 700 mmHg 82%
12:00 -2°C° 0 mm 1 m/s 700 mmHg 83%
13:00 -2°C° 0 mm 1 m/s 699 mmHg 84%
14:00 -2°C° 0 mm 1 m/s 699 mmHg 85%
15:00 -3°C° 0 mm 1 m/s 699 mmHg 86%
16:00 -4°C° 0 mm 1 m/s 699 mmHg 87%
17:00 -7°C° 0 mm 1 m/s 699 mmHg 88%
18:00 -7°C° 0 mm 1 m/s 699 mmHg 85%
19:00 -7°C° 0 mm 1 m/s 699 mmHg 83%
20:00 -7°C° 0 mm 0 m/s 699 mmHg 81%
21:00 -7°C° 0 mm 0 m/s 699 mmHg 80%
22:00 -8°C° 0 mm 0 m/s 699 mmHg 79%
23:00 -8°C° 0 mm 1 m/s 700 mmHg 78%

26 Janeiro, Terça-feira

Tempo Temperatura Precipitação Vento Pressão Humidade
00:00 -8°C° 0 mm 1 m/s 699 mmHg 77%
01:00 -8°C° 0 mm 1 m/s 699 mmHg 76%
02:00 -8°C° 0 mm 1 m/s 699 mmHg 76%
03:00 -8°C° 0 mm 1 m/s 699 mmHg 75%
04:00 -8°C° 0 mm 1 m/s 699 mmHg 75%
05:00 -8°C° 0 mm 1 m/s 699 mmHg 74%
06:00 -8°C° 0 mm 1 m/s 699 mmHg 74%
07:00 -8°C° 0 mm 1 m/s 700 mmHg 74%
08:00 -8°C° 0 mm 1 m/s 700 mmHg 73%
09:00 -7°C° 0 mm 1 m/s 700 mmHg 74%
10:00 -4°C° 0 mm 1 m/s 700 mmHg 75%
11:00 -3°C° 0 mm 1 m/s 700 mmHg 76%
12:00 -2°C° 0 mm 1 m/s 700 mmHg 78%
13:00 -2°C° 0 mm 1 m/s 699 mmHg 79%
14:00 -2°C° 0 mm 1 m/s 699 mmHg 81%
15:00 -3°C° 0 mm 1 m/s 699 mmHg 82%
16:00 -6°C° 0 mm 1 m/s 699 mmHg 83%
17:00 -7°C° 0 mm 0 m/s 699 mmHg 84%
18:00 -7°C° 0 mm 1 m/s 699 mmHg 81%
19:00 -8°C° 0 mm 1 m/s 699 mmHg 78%
20:00 -8°C° 0 mm 1 m/s 700 mmHg 75%
21:00 -8°C° 0 mm 1 m/s 700 mmHg 74%
22:00 -8°C° 0 mm 1 m/s 700 mmHg 73%
23:00 -8°C° 0 mm 1 m/s 700 mmHg 72%

27 Janeiro, Quarta-feira

Tempo Temperatura Precipitação Vento Pressão Humidade
00:00 -8°C° 0 mm 1 m/s 700 mmHg 71%
01:00 -8°C° 0 mm 1 m/s 700 mmHg 71%
02:00 -8°C° 0 mm 1 m/s 700 mmHg 71%
03:00 -8°C° 0 mm 1 m/s 700 mmHg 70%
04:00 -9°C° 0 mm 1 m/s 700 mmHg 70%
05:00 -9°C° 0 mm 1 m/s 700 mmHg 69%
06:00 -9°C° 0 mm 1 m/s 700 mmHg 69%
07:00 -8°C° 0 mm 1 m/s 700 mmHg 69%
08:00 -8°C° 0 mm 1 m/s 700 mmHg 69%
09:00 -7°C° 0 mm 1 m/s 700 mmHg 71%
10:00 -6°C° 0 mm 1 m/s 700 mmHg 72%
11:00 -3°C° 0 mm 1 m/s 700 mmHg 74%
12:00 -3°C° 0 mm 1 m/s 699 mmHg 75%
13:00 -2°C° 0 mm 1 m/s 699 mmHg 77%
14:00 -2°C° 0 mm 1 m/s 699 mmHg 79%
15:00 -3°C° 0 mm 1 m/s 699 mmHg 80%
16:00 -6°C° 0 mm 1 m/s 699 mmHg 81%
17:00 -7°C° 0 mm 1 m/s 699 mmHg 82%
18:00 -7°C° 0 mm 1 m/s 699 mmHg 79%
19:00 -7°C° 0 mm 1 m/s 700 mmHg 77%
20:00 -8°C° 0 mm 1 m/s 700 mmHg 74%
21:00 -8°C° 0 mm 1 m/s 700 mmHg 72%
22:00 -8°C° 0 mm 1 m/s 700 mmHg 71%
23:00 -8°C° 0 mm 1 m/s 700 mmHg 69%
Mostrar mais

Necessitamos do seu Consentimento

A Meteoprog e os seus Fornecedores de Serviços podem armazenar e aceder a dados pessoais como cookies, identificadores do dispositivo ou outras tecnologias semelhantes existentes no seu dispositivo e processar estes dados para personalizar conteúdos e anúncios, assim como funcionalidades nas redes sociais e análise de tráfego.

  • Armazenar e/ou aceder a informações no seu dispositivo

    Os cookies, identificadores do dispositivo ou outras informações podem ser armazenados ou acedidos no seu dispositivo, para os fins acima indicados.

  • Anúncios e conteúdos personalizados, medição de anúncios e conteúdos, dados sobre o público-alvo e desenvolvimento de produtos

    Os anúncios e os conteúdos podem ser personalizados com base num perfil. Podem ser adicionados dados adicionais para uma maior personalização dos anúncios e dos conteúdos. A eficácia dos anúncios e dos conteúdos pode ser medida. Podem ser obtidas informações sobre o público que visualizou os anúncios e os conteúdos. Estes dados podem ser usados para desenvolver ou melhorar sistemas, softwares ou a experiência do utilizador.

Ao clicar em "Eu concordo”, permitirá o uso de cookies, identificadores do dispositivo e web beacons mencionados ou outras tecnologias semelhantes. As configurações do navegador do seu dispositivo podem ser alteradas.

Para certos fins, podem ser invocados interesses legítimos ao invés de consentimento. Pode ler mais informação sobre este assunto na nossa Política de Privacidade e Cookies.